Wind_Speed
18 18 18 18 18 19 19 19 20 20 21 23 24 25 27 28 29 29 30 31 32 32 33 34 35 36 36 37 38 39 39 40 40 41 42 43 43 44 44 45 45 45 45
19 20 20 20 20 21 23 23 23 24 25 26 27 28 30 32 34 35 36 37 38 38 39 39 40 40 41 41 42 43 43 44 45 45 46 46 47 47 47 48 48 48 48
22 22 22 23 24 24 25 26 27 28 29 30 31 32 33 36 38 39 41 42 43 44 44 45 45 46 46 47 47 48 48 49 50 50 51 51 52 51 51 51 51 52 51
24 24 25 26 26 27 28 29 31 32 33 34 35 36 37 39 40 42 44 45 46 47 49 50 50 51 51 52 53 53 54 54 55 56 56 56 56 56 56 55 55 55 54
27 27 27 27 28 28 29 31 33 35 37 38 39 40 41 42 43 45 46 47 49 51 52 53 54 55 56 56 57 57 58 58 59 59 60 60 60 60 59 59 58 58 57
31 30 30 31 31 32 32 34 36 38 40 41 42 42 44 45 47 48 50 51 53 54 56 57 57 58 59 59 60 61 61 62 62 62 63 63 63 63 62 61 60 60 59
34 33 34 34 35 35 35 37 38 41 43 44 44 45 46 48 49 51 53 54 56 57 58 59 60 61 62 63 64 64 64 64 64 65 65 65 65 64 63 62 61 61 60
36 36 37 37 37 37 38 39 41 43 44 44 45 46 47 49 51 53 54 56 58 59 60 61 62 63 64 65 65 65 65 66 66 66 66 66 65 64 63 61 60 59 59
39 39 38 38 38 39 40 41 42 43 45 45 46 48 49 50 52 54 56 57 58 60 61 62 62 63 64 64 65 65 66 67 67 67 67 65 64 62 61 60 59 58 57
39 41 41 40 40 41 42 43 44 44 45 47 49 50 52 53 53 54 56 58 59 60 61 63 63 64 64 65 66 67 67 68 68 68 67 65 63 61 59 58 58 57 57
41 42 42 43 43 44 44 45 46 46 48 50 51 53 55 55 56 56 56 58 60 61 62 63 64 65 66 67 68 69 69 70 70 69 67 65 63 60 59 58 57 57 57
44 44 44 44 45 46 46 47 48 49 51 53 54 55 57 58 59 59 58 59 60 61 62 64 65 67 68 69 71 71 72 72 71 69 67 65 63 61 60 59 58 57 56
45 45 46 47 47 48 49 50 51 53 55 56 57 58 59 60 60 60 60 60 59 61 63 65 67 69 70 72 73 74 75 74 73 71 69 66 65 63 62 61 60 59 58
47 48 48 49 50 50 51 52 54 56 57 58 59 60 61 62 60 61 62 62 62 62 64 66 69 71 73 74 75 76 76 75 74 72 69 67 66 64 63 62 61 60 60
51 51 51 51 52 53 54 56 57 58 59 60 61 62 61 61 61 62 63 64 65 65 65 68 70 73 75 75 75 74 73 71 69 68 66 65 63 62 61 61 61 61 61
54 54 55 55 56 57 58 58 59 59 59 60 61 61 61 61 61 61 62 64 66 67 67 69 72 74 74 73 71 69 65 62 60 59 58 57 57 57 57 57 58 59 61
57 58 58 58 58 59 59 59 59 60 60 61 61 60 59 60 60 60 62 64 66 68 69 69 71 71 69 66 62 58 54 51 49 47 47 47 48 49 51 52 54 56 58
59 60 60 59 59 59 59 59 59 59 59 60 60 59 59 59 59 60 62 64 66 69 69 67 64 61 57 52 48 45 43 41 39 39 39 40 41 42 43 45 47 50 53
60 60 59 58 58 59 59 59 58 59 60 60 59 58 58 57 58 60 62 64 65 65 62 59 52 48 44 41 38 36 34 34 33 33 33 33 34 34 36 37 39 42 45
58 57 57 57 57 57 58 58 58 59 59 58 57 57 57 58 59 60 60 60 59 56 52 47 41 37 34 32 30 28 28 28 27 26 26 26 27 27 29 30 32 35 38
56 56 56 55 56 57 57 58 58 58 57 56 55 55 56 57 57 57 56 53 50 45 41 36 32 28 26 25 25 24 22 22 22 22 21 21 22 23 25 26 27 30 32
53 54 54 55 56 57 57 57 57 55 53 53 53 53 54 54 53 51 48 44 39 34 28 26 23 21 20 20 19 19 18 18 18 19 19 19 19 19 21 22 24 26 28
52 53 54 55 56 55 54 53 51 50 50 50 50 50 49 48 45 41 37 33 28 24 21 19 17 16 16 16 16 17 17 17 17 17 17 16 16 16 17 18 20 22 24
52 53 53 53 52 50 49 48 48 48 47 47 46 44 41 38 35 30 27 23 20 18 16 14 14 13 14 14 15 15 16 16 16 15 14 13 13 14 14 15 16 18 20
50 50 49 48 46 45 45 44 44 43 42 41 39 36 33 29 26 22 18 16 14 13 12 12 11 12 12 13 15 15 16 15 14 13 12 12 11 12 12 13 14 16 18
46 45 44 43 43 42 41 40 38 38 37 35 33 29 25 22 18 14 11 10 10 9 9 10 11 12 13 14 15 15 15 14 13 12 11 10 10 9 10 10 10 12 14
Wind_Direction
319 312 303 298 292 288 287 286 284 282 282 281 281 281 281 280 279 279 278 278 278 278 280 281 281 282 282 282 282 282 281 281 280 280 280 279 278 277 276 275 275 274 273
315 313 306 298 292 288 287 287 286 284 282 281 281 281 281 281 281 280 281 281 281 281 281 282 282 282 282 282 282 281 281 281 282 282 281 281 280 278 277 276 275 274 273
310 308 306 301 294 290 288 285 284 283 282 281 281 282 282 282 282 282 282 282 282 283 283 283 283 282 282 282 282 282 282 282 282 282 281 281 280 279 278 276 275 274 273
308 306 303 301 297 292 289 286 285 284 283 283 283 283 284 284 284 283 283 283 284 284 284 283 283 282 282 282 282 281 281 281 282 281 281 280 280 279 277 276 275 273 272
301 301 302 300 298 294 290 287 286 286 285 284 284 284 285 285 284 284 284 284 284 284 284 284 283 282 282 282 281 281 281 280 280 280 280 279 279 278 277 275 274 272 270
297 297 299 297 295 293 289 286 284 284 284 284 284 284 285 286 286 285 285 285 285 285 285 284 284 283 282 282 281 281 281 280 280 280 280 280 279 278 277 275 273 271 269
293 291 294 295 293 291 288 285 284 284 285 284 283 284 286 287 287 287 286 286 287 286 286 285 284 283 282 281 281 281 281 280 280 280 280 280 279 277 276 274 272 269 267
292 291 291 292 291 289 288 287 286 287 287 286 285 286 287 288 288 288 288 287 287 287 286 285 284 283 282 282 281 281 280 280 280 280 280 279 278 276 274 272 270 267 264
291 293 292 291 292 290 289 289 288 288 289 288 288 287 288 288 289 289 288 288 287 286 285 284 283 283 282 282 281 281 280 280 280 279 279 278 277 274 272 269 266 263 260
291 292 293 293 292 291 291 291 290 290 290 289 289 289 289 290 289 289 289 288 288 287 286 284 283 283 283 283 282 282 281 281 280 280 279 278 275 272 269 266 264 261 258
293 294 293 293 292 291 291 291 291 291 291 291 291 291 291 291 290 289 288 288 288 288 286 285 284 283 283 283 282 282 282 281 281 280 279 276 274 271 268 265 262 259 257
293 293 292 292 292 292 292 292 291 290 291 292 292 291 292 292 291 291 290 289 288 288 287 287 286 285 284 284 283 283 282 282 281 279 278 275 272 269 266 263 260 258 255
291 292 292 292 292 291 291 291 290 291 291 292 292 292 292 293 292 292 291 290 289 288 287 287 287 286 286 285 285 284 283 282 281 279 277 274 271 268 265 262 259 256 253
291 292 292 292 292 291 292 292 291 291 291 292 293 293 293 294 294 294 292 290 289 288 288 288 288 288 287 287 286 285 284 282 280 278 276 273 270 267 263 260 257 254 252
291 291 291 291 290 291 292 292 292 292 292 293 294 295 294 294 295 295 293 291 290 289 288 288 287 287 288 287 286 285 284 282 280 277 274 271 267 264 261 257 254 251 249
290 290 291 291 291 291 292 292 293 292 294 296 298 298 297 296 296 295 293 292 291 291 290 289 289 289 288 288 288 286 285 282 279 276 272 269 265 261 258 255 252 249 246
289 290 290 291 292 292 293 293 294 295 296 298 299 299 298 298 296 294 293 293 292 292 292 292 291 291 291 291 290 288 286 283 280 276 272 268 264 261 257 254 251 248 246
288 289 290 291 292 292 293 295 296 298 298 299 300 299 298 297 296 294 294 294 294 294 294 294 295 295 294 292 290 289 287 285 281 277 273 269 265 262 258 254 251 248 246
288 288 289 290 291 293 294 296 298 298 299 300 301 300 298 297 296 295 295 296 296 297 298 299 299 297 295 293 292 291 289 287 283 279 275 271 267 263 259 255 251 248 246
287 288 290 291 293 295 296 297 298 299 300 301 300 298 297 297 297 297 297 298 298 300 301 302 301 299 297 295 294 293 292 290 288 284 280 274 269 265 261 256 252 249 246
286 288 290 292 293 296 297 298 299 300 300 299 299 298 298 298 298 298 299 299 301 303 304 304 303 302 300 299 299 299 297 294 292 290 286 279 273 267 262 257 253 250 247
289 290 292 295 296 297 298 299 299 298 298 298 299 299 299 299 300 300 301 303 304 306 306 307 307 307 307 307 308 308 306 302 298 295 292 286 279 272 266 261 256 252 247
290 292 295 296 296 296 298 299 299 298 298 299 299 300 300 300 301 302 304 306 308 309 311 312 313 314 315 316 317 316 315 311 306 302 299 291 283 276 270 264 259 254 250
293 294 295 296 297 297 298 298 299 299 299 300 300 300 301 302 303 305 306 307 309 312 316 319 321 322 323 324 325 326 324 322 318 314 309 299 290 283 276 269 262 256 250
295 296 297 297 298 298 299 299 300 299 300 300 300 301 303 304 306 307 307 308 312 317 322 328 332 334 336 338 337 336 334 333 331 326 321 316 306 296 287 278 269 261 253
297 298 299 298 299 299 300 300 300 300 300 301 302 304 306 307 308 309 311 315 322 329 336 342 347 349 349 349 349 348 346 346 344 341 335 329 322 312 300 288 275 264 254
Height
5870 5869 5868 5867 5866 5865 5864 5863 5861 5860 5858 5857 5855 5853 5851 5850 5849 5847 5846 5845 5843 5842 5840 5839 5837 5836 5834 5832 5831 5829 5828 5827 5826 5825 5825 5824 5824 5823 5823 5823 5823 5823 5823
5867 5865 5864 5863 5862 5860 5859 5858 5857 5855 5854 5852 5850 5848 5846 5844 5842 5840 5838 5837 5835 5834 5833 5831 5829 5827 5825 5824 5822 5820 5819 5817 5816 5815 5814 5814 5813 5813 5812 5812 5812 5812 5813
5862 5860 5858 5857 5856 5855 5853 5852 5850 5849 5847 5846 5844 5842 5840 5837 5834 5832 5830 5828 5826 5824 5823 5821 5819 5817 5815 5813 5811 5809 5808 5806 5805 5803 5802 5801 5801 5801 5800 5800 5800 5800 5801
5856 5854 5852 5850 5849 5848 5846 5845 5843 5841 5840 5838 5836 5835 5832 5830 5827 5824 5821 5819 5816 5814 5812 5810 5808 5806 5804 5801 5799 5797 5795 5794 5792 5790 5789 5788 5787 5787 5787 5787 5787 5787 5788
5849 5847 5845 5843 5842 5840 5839 5837 5835 5833 5831 5829 5828 5826 5823 5821 5818 5815 5812 5809 5806 5803 5800 5798 5795 5793 5790 5788 5786 5784 5782 5780 5778 5776 5775 5773 5772 5772 5771 5771 5772 5772 5773
5842 5840 5838 5836 5834 5832 5831 5829 5827 5824 5822 5820 5818 5816 5813 5810 5807 5805 5802 5798 5795 5791 5788 5785 5782 5779 5776 5773 5771 5769 5767 5765 5762 5761 5759 5757 5756 5755 5755 5755 5755 5756 5757
5833 5831 5829 5828 5826 5824 5822 5820 5817 5815 5813 5811 5809 5807 5804 5800 5796 5793 5789 5786 5782 5778 5775 5771 5767 5764 5761 5758 5755 5753 5750 5748 5746 5744 5742 5740 5739 5738 5737 5737 5738 5739 5740
5825 5823 5821 5819 5817 5815 5813 5810 5808 5805 5802 5800 5798 5795 5793 5790 5785 5781 5777 5773 5769 5764 5760 5756 5752 5749 5745 5742 5739 5736 5734 5732 5729 5727 5724 5722 5721 5720 5719 5719 5720 5721 5722
5818 5815 5813 5810 5808 5805 5803 5800 5798 5795 5791 5789 5786 5784 5781 5778 5774 5770 5764 5760 5755 5750 5746 5741 5737 5733 5729 5725 5722 5719 5716 5714 5712 5709 5706 5704 5702 5701 5700 5701 5701 5703 5704
5809 5806 5803 5801 5798 5796 5793 5790 5787 5784 5781 5777 5774 5771 5769 5765 5761 5757 5752 5746 5740 5736 5731 5726 5721 5716 5712 5708 5704 5701 5698 5695 5692 5690 5688 5685 5684 5682 5682 5682 5683 5685 5687
5800 5797 5795 5792 5789 5786 5783 5780 5777 5774 5770 5766 5762 5758 5754 5750 5746 5743 5739 5733 5726 5720 5715 5709 5704 5699 5694 5690 5686 5682 5678 5675 5672 5670 5668 5666 5665 5664 5663 5664 5666 5668 5670
5792 5789 5785 5782 5779 5776 5772 5769 5766 5762 5758 5754 5750 5745 5741 5736 5731 5726 5723 5718 5713 5706 5699 5693 5687 5681 5676 5671 5666 5662 5658 5655 5652 5649 5647 5646 5645 5645 5645 5646 5648 5650 5653
5783 5779 5776 5772 5769 5765 5761 5758 5754 5750 5745 5741 5736 5731 5726 5721 5716 5711 5706 5702 5697 5692 5684 5676 5668 5661 5656 5651 5645 5640 5636 5633 5629 5627 5626 5624 5624 5625 5626 5627 5630 5632 5636
5773 5769 5765 5761 5758 5753 5750 5746 5741 5737 5732 5727 5722 5716 5711 5705 5700 5694 5689 5685 5681 5676 5669 5660 5650 5641 5635 5629 5623 5618 5614 5609 5606 5604 5603 5602 5602 5603 5604 5607 5610 5613 5617
5761 5758 5754 5750 5746 5741 5737 5733 5728 5723 5718 5712 5707 5701 5696 5690 5684 5677 5672 5666 5662 5658 5654 5643 5633 5623 5614 5608 5601 5595 5590 5586 5583 5581 5579 5579 5579 5581 5582 5585 5588 5593 5597
5749 5745 5741 5737 5733 5728 5723 5718 5713 5708 5702 5697 5691 5686 5680 5674 5668 5661 5654 5648 5641 5636 5633 5625 5613 5603 5594 5587 5579 5574 5569 5565 5561 5559 5557 5557 5558 5559 5561 5564 5568 5572 5577
5737 5732 5728 5723 5719 5714 5709 5703 5698 5693 5688 5682 5676 5670 5664 5658 5651 5644 5638 5630 5623 5615 5610 5605 5593 5583 5575 5567 5560 5555 5550 5547 5544 5542 5540 5539 5540 5541 5543 5546 5549 5553 5558
5723 5718 5714 5709 5704 5699 5694 5689 5684 5678 5673 5667 5661 5655 5648 5642 5635 5628 5621 5613 5605 5597 5589 5584 5575 5565 5557 5550 5545 5541 5537 5533 5530 5528 5526 5525 5525 5526 5527 5529 5532 5536 5540
5709 5704 5700 5695 5690 5685 5679 5674 5669 5664 5658 5652 5646 5640 5633 5626 5620 5612 5605 5597 5588 5579 5571 5565 5559 5551 5544 5538 5534 5530 5526 5522 5519 5517 5515 5514 5514 5514 5515 5516 5519 5522 5526
5695 5690 5686 5681 5675 5670 5665 5660 5655 5649 5643 5637 5631 5625 5618 5611 5604 5597 5589 5581 5573 5565 5557 5551 5545 5539 5534 5529 5525 5521 5518 5514 5511 5508 5506 5505 5504 5504 5505 5506 5508 5510 5513
5681 5676 5671 5666 5662 5657 5652 5646 5640 5635 5629 5623 5616 5610 5603 5596 5589 5582 5575 5567 5560 5554 5547 5541 5536 5531 5527 5522 5518 5515 5511 5508 5505 5501 5500 5498 5497 5497 5496 5497 5498 5500 5503
5666 5662 5657 5653 5648 5643 5637 5632 5626 5621 5615 5609 5603 5596 5589 5582 5575 5568 5562 5556 5550 5545 5540 5535 5530 5526 5522 5518 5514 5510 5506 5503 5500 5497 5494 5492 5490 5490 5489 5490 5490 5492 5494
5653 5649 5644 5639 5634 5629 5624 5618 5612 5607 5601 5596 5590 5583 5576 5570 5564 5559 5553 5548 5543 5539 5535 5531 5527 5523 5519 5515 5511 5507 5503 5499 5496 5493 5490 5487 5485 5484 5484 5483 5484 5484 5486
5640 5636 5631 5626 5621 5616 5610 5605 5600 5594 5588 5583 5578 5572 5566 5560 5556 5551 5547 5543 5539 5535 5532 5528 5524 5520 5516 5513 5509 5505 5501 5496 5492 5489 5486 5483 5481 5480 5479 5478 5478 5478 5479
5628 5623 5618 5613 5608 5603 5598 5593 5587 5582 5577 5572 5567 5562 5558 5553 5549 5546 5542 5539 5536 5533 5530 5526 5523 5519 5515 5511 5507 5503 5498 5494 5490 5486 5483 5481 5478 5476 5475 5474 5473 5473 5474
5615 5610 5605 5601 5596 5591 5587 5582 5577 5572 5567 5562 5559 5555 5552 5548 5545 5542 5539 5537 5535 5532 5529 5526 5522 5519 5515 5511 5506 5502 5497 5493 5489 5485 5482 5479 5476 5474 5472 5471 5470 5469 5469